Home > Time Zones > World Clock > Weather > India > Mau > Past weeks

Flag for India Weather past 2 weeks in Mau, Uttar Pradesh, India

Now
82 °F

Broken clouds.


Feels Like: 91 °F
Forecast: 78 / 86 °F
Wind: 6 mph from Southwest

Location: Varanasi / Babatpur

Current Time: Jul 31, 2015 at 7:14:16 AM

Latest Report: Jul 31, 2015 at 6:00 AM


Visibility: 2 mi

Pressure: 29.53 "Hg

Humidity: 84%

Dew point: 77 °F

Location of MauLocation

Historic Weather in Mau — Graph

°F

Mau temperature yesterday

Maximum temperature yesterday: 95 °F (at 3:00 PM)
Minimum temperature yesterday: 82 °F (at 5:00 AM)
Average temperature yesterday: 88 °F

Past Weeks' High & Low Weather Summary

 TemperatureHumidityPressure
High99 °F (Jul 27, 4:00 PM)100% (Jul 16, 6:00 AM)29.65 "Hg (Jul 16, 6:00 AM)
Low77 °F (Jul 16, 9:00 AM)45% (Jul 23, 4:00 AM)29.39 "Hg (Jul 16, 6:00 AM)
Average86 °F77%29.53 "Hg
* Reported Jul 16 6:00 AM — Jul 31 5:00 AM, Mau, Weather by CustomWeather, © 2015

Note: Actual official high and low records may vary slightly from our data, if they occured in-between our weather recording intervals... More about our weather records

Advertising

Mau weather history for previous 24 hours

 ConditionsComfort  
Time TempWeatherWind HumidityBarometerVisibility
5:00 AM
Fri, Jul 31
84 °FPartly cloudy.7 mph84%29.53 "Hg2 mi
4:00 AM84 °FLight rain. Partly cloudy.5 mph84%29.53 "Hg2 mi
12:00 AM86 °FPartly cloudy.No wind79%29.56 "Hg2 mi
11:00 PM
Thu, Jul 30
86 °FPartly cloudy.No wind79%29.56 "Hg2 mi
10:00 PM86 °FPartly cloudy.1 mph66%29.56 "Hg3 mi
9:00 PM86 °FPartly cloudy.2 mph66%29.56 "Hg3 mi
7:00 PM86 °FScattered clouds.7 mph66%29.50 "Hg4 mi
6:00 PM86 °FScattered clouds.12 mph75%29.53 "Hg4 mi
5:00 PM93 °FScattered clouds.6 mph56%29.50 "Hg4 mi
4:00 PM95 °FScattered clouds.6 mph56%29.50 "Hg4 mi
3:00 PM95 °FScattered clouds.8 mph56%29.53 "Hg4 mi
2:00 PM93 °FScattered clouds.9 mph59%29.56 "Hg4 mi
1:00 PM93 °FScattered clouds.9 mph59%29.56 "Hg4 mi
12:00 PM91 °FScattered clouds.8 mph63%29.56 "Hg4 mi
11:00 AM90 °FScattered clouds.10 mph67%29.59 "Hg4 mi
9:00 AM88 °FScattered clouds.7 mph66%29.59 "Hg3 mi
8:00 AM84 °FHaze.2 mph74%29.59 "Hg3 mi
7:00 AM84 °FHaze.3 mph74%29.59 "Hg3 mi
Weather by CustomWeather, © 2015

See weather overviewHow to use our weather pages